COSMOS 2251 DEB, 34003

Orbit data source: Space-Track

COSMOS 2251 DEB, 34003 is space debris in LEO originally from a launch on Wed, 16 Jun 1993 UTC launched from the Plesetsk Missile And Space Complex (PKMTR). The debris from Iridium 33, an American commercial communications satellite, has been tracked extensively since its accidental collision with the defunct Russian satellite Cosmos 2251 in 2009. This event, occurring at high speed in low Earth orbit (LEO), generated thousands of pieces of space debris, significantly increasing the risk of further collisions. The Iridium 33 debris cloud has impacted space traffic management and orbital debris mitigation strategies, making it a subject of ongoing study in space situational awareness.

Loading next visibility...
Identifier
34003, 1993-036GN
Orbit
LEO
Country
Flag of CISCIS
Related business
Manufacturer
Unknown
Mission
Spacecraft
Bus & Motor
Unknown
Mass
Unknown
Launch date (UTC)
1993-06-16 (33 years ago)
Launch vehicle
Unknown
Launch site
Plesetsk Missile And Space Complex (PKMTR)
Object type
Payload
Rocket body
Debris
Shape & HBR
Unknown shape, 0.1 m
Radar Cross Section
Small (<0.1 m²)

Expand to show TLE details & history
Last TLE update: 3 days ago

TLE from 3 days ago
0 COSMOS 2251 DEB
1 34003U 93036GN  26069.16841754  .00002937  00000-0  19486-2 0  9991
2 34003  74.0769 137.9270 0278740 230.4286 127.1921 13.84634597856357
Epoch: 2026-03-10T04:02Z
TLE epoch observation values (Epoch: 2026-03-10T04:02:31.275Z)
Latitude
-0.00003°
Longitude
-90.5542°
Altitude
1,077.019 km
Speed
7.25 km/s
True Right ascension
09h 11m 42s
True Declination
0° 00' 00"
Sunlit
Object was in full shadow at epoch
Visualization orbit readout
Latitude
Unknown
Longitude
Unknown
Altitude
Unknown
Speed
Unknown
Apparent Right ascension
Unknown
Apparent Declination
Unknown
Sunlit
N/A
Visualization observer readout
Local Sidereal Time
21:09:50
Azimuth
Unknown
Elevation
Unknown
Doppler factor
Unknown
Orbital elements
Apogee altitude
1,149.299 km
Perigee altitude
741.04 km
Semi-major axis
7,323.306 km
Eccentricity
0.02787
Inclination
74.0769°
RAAN
137.927°
Arg. of periapsis
230.4286°
True anomaly
129.68327°
Mean anomaly
127.1921°
Eccentric anomaly
128.44296°
Mean motion
3.46324 °/min
Orbital period
103.95 mins
BSTAR
0.0019486
Loading maneuver chart data...
Computing Atmospheric mass density...

Documentation

Showing up to 5 results
|